When you browse on this site, cookies collect data to enhance your experience and personalize the content and advertising you see.
Visit our Privacy Policy to learn more. By continuing to use the site, you agree to this use of cookies and data.
  • In Österreich
  • Länderverzeichnis
  • Für 7 Tage
  • Wassertemperatur
  • Wetterkarte
  • News
  • Widgets
  • user-avatar
    Anmelden

    Stündliche Wetter Kiustendil

    Heute, 24 Oktober, Donnerstag

    Zeit Temperatur Niederschläge Wind Luftdruck Luftfeuchtigkeit
    00:00 +8°C° 0 mm 1 m/S 628 mmHg 44%
    01:00 +7°C° 0 mm 1 m/S 627 mmHg 45%
    02:00 +7°C° 0 mm 1 m/S 627 mmHg 46%
    03:00 +7°C° 0 mm 1 m/S 627 mmHg 47%
    04:00 +6°C° 0 mm 1 m/S 626 mmHg 48%
    05:00 +6°C° 0 mm 0 m/S 627 mmHg 47%
    06:00 +7°C° 0 mm 0 m/S 627 mmHg 47%
    07:00 +7°C° 0 mm 0 m/S 628 mmHg 46%
    08:00 +11°C° 0 mm 1 m/S 628 mmHg 41%
    09:00 +13°C° 0 mm 1 m/S 629 mmHg 35%
    10:00 +16°C° 0 mm 1 m/S 630 mmHg 30%
    11:00 +18°C° 0 mm 1 m/S 630 mmHg 29%
    12:00 +18°C° 0 mm 1 m/S 630 mmHg 27%
    13:00 +19°C° 0 mm 1 m/S 630 mmHg 26%
    14:00 +18°C° 0 mm 1 m/S 629 mmHg 29%
    15:00 +15°C° 0 mm 1 m/S 628 mmHg 33%
    16:00 +14°C° 0 mm 1 m/S 627 mmHg 37%
    17:00 +13°C° 0 mm 1 m/S 627 mmHg 39%
    18:00 +11°C° 0 mm 1 m/S 626 mmHg 42%
    19:00 +10°C° 0 mm 1 m/S 626 mmHg 44%
    20:00 +9°C° 0 mm 1 m/S 626 mmHg 46%
    21:00 +9°C° 0 mm 1 m/S 626 mmHg 47%
    22:00 +8°C° 0 mm 1 m/S 626 mmHg 48%
    23:00 +8°C° 0 mm 1 m/S 626 mmHg 49%

    Morgen, 25 Oktober, Freitag

    Zeit Temperatur Niederschläge Wind Luftdruck Luftfeuchtigkeit
    00:00 +7°C° 0 mm 1 m/S 626 mmHg 51%
    01:00 +7°C° 0 mm 1 m/S 626 mmHg 52%
    02:00 +7°C° 0 mm 1 m/S 625 mmHg 52%
    03:00 +6°C° 0 mm 1 m/S 625 mmHg 53%
    04:00 +6°C° 0 mm 1 m/S 625 mmHg 54%
    05:00 +6°C° 0 mm 0 m/S 625 mmHg 52%
    06:00 +6°C° 0 mm 0 m/S 626 mmHg 51%
    07:00 +7°C° 0 mm 0 m/S 626 mmHg 49%
    08:00 +9°C° 0 mm 0 m/S 627 mmHg 43%
    09:00 +13°C° 0 mm 1 m/S 628 mmHg 37%
    10:00 +16°C° 0 mm 1 m/S 629 mmHg 31%
    11:00 +16°C° 0 mm 1 m/S 629 mmHg 29%
    12:00 +18°C° 0 mm 1 m/S 629 mmHg 27%
    13:00 +19°C° 0 mm 1 m/S 629 mmHg 26%
    14:00 +18°C° 0 mm 1 m/S 629 mmHg 29%
    15:00 +15°C° 0 mm 1 m/S 628 mmHg 33%
    16:00 +14°C° 0 mm 1 m/S 628 mmHg 37%
    17:00 +12°C° 0 mm 1 m/S 628 mmHg 39%
    18:00 +11°C° 0 mm 1 m/S 627 mmHg 40%
    19:00 +9°C° 0 mm 1 m/S 627 mmHg 42%
    20:00 +9°C° 0 mm 1 m/S 628 mmHg 43%
    21:00 +9°C° 0 mm 1 m/S 628 mmHg 43%
    22:00 +8°C° 0 mm 1 m/S 628 mmHg 43%
    23:00 +8°C° 0 mm 1 m/S 628 mmHg 45%

    übermorgen, 26 Oktober, Samstag

    Zeit Temperatur Niederschläge Wind Luftdruck Luftfeuchtigkeit
    00:00 +7°C° 0 mm 1 m/S 628 mmHg 46%
    01:00 +7°C° 0 mm 1 m/S 628 mmHg 47%
    02:00 +6°C° 0 mm 1 m/S 628 mmHg 49%
    03:00 +6°C° 0 mm 1 m/S 627 mmHg 50%
    04:00 +6°C° 0 mm 1 m/S 627 mmHg 51%
    05:00 +6°C° 0 mm 1 m/S 628 mmHg 51%
    06:00 +7°C° 0 mm 1 m/S 628 mmHg 50%
    07:00 +7°C° 0 mm 1 m/S 628 mmHg 50%
    08:00 +10°C° 0 mm 1 m/S 630 mmHg 43%
    09:00 +12°C° 0 mm 1 m/S 631 mmHg 37%
    10:00 +15°C° 0 mm 1 m/S 632 mmHg 30%
    11:00 +15°C° 0 mm 1 m/S 632 mmHg 28%
    12:00 +16°C° 0 mm 1 m/S 632 mmHg 26%
    13:00 +18°C° 0 mm 1 m/S 632 mmHg 24%
    14:00 +16°C° 0 mm 1 m/S 631 mmHg 28%
    15:00 +14°C° 0 mm 1 m/S 630 mmHg 31%
    16:00 +12°C° 0 mm 0 m/S 630 mmHg 35%
    17:00 +12°C° 0 mm 1 m/S 629 mmHg 37%
    18:00 +10°C° 0 mm 1 m/S 629 mmHg 39%
    19:00 +9°C° 0 mm 1 m/S 629 mmHg 41%
    20:00 +8°C° 0 mm 1 m/S 629 mmHg 41%
    21:00 +8°C° 0 mm 1 m/S 629 mmHg 41%
    22:00 +8°C° 0 mm 1 m/S 629 mmHg 41%
    23:00 +7°C° 0 mm 1 m/S 628 mmHg 42%

    27 Oktober, Sonntag

    Zeit Temperatur Niederschläge Wind Luftdruck Luftfeuchtigkeit
    00:00 +7°C° 0 mm 1 m/S 628 mmHg 43%
    01:00 +6°C° 0 mm 1 m/S 628 mmHg 43%
    02:00 +6°C° 0 mm 1 m/S 628 mmHg 44%
    03:00 +6°C° 0 mm 1 m/S 628 mmHg 44%
    04:00 +6°C° 0 mm 1 m/S 627 mmHg 44%
    05:00 +5°C° 0 mm 0 m/S 628 mmHg 44%
    06:00 +6°C° 0 mm 0 m/S 628 mmHg 43%
    07:00 +6°C° 0 mm 0 m/S 628 mmHg 42%
    08:00 +9°C° 0 mm 0 m/S 629 mmHg 37%
    09:00 +13°C° 0 mm 1 m/S 630 mmHg 32%
    10:00 +15°C° 0 mm 1 m/S 631 mmHg 27%
    11:00 +16°C° 0 mm 1 m/S 631 mmHg 26%
    12:00 +18°C° 0 mm 1 m/S 631 mmHg 24%
    13:00 +19°C° 0 mm 1 m/S 630 mmHg 23%
    14:00 +16°C° 0 mm 1 m/S 630 mmHg 27%
    15:00 +15°C° 0 mm 1 m/S 629 mmHg 31%
    16:00 +12°C° 0 mm 0 m/S 628 mmHg 34%
    17:00 +11°C° 0 mm 0 m/S 627 mmHg 37%
    18:00 +10°C° 0 mm 1 m/S 627 mmHg 39%
    19:00 +9°C° 0 mm 1 m/S 626 mmHg 41%
    20:00 +8°C° 0 mm 1 m/S 626 mmHg 41%
    21:00 +8°C° 0 mm 1 m/S 626 mmHg 42%
    22:00 +7°C° 0 mm 0 m/S 626 mmHg 43%
    23:00 +6°C° 0 mm 0 m/S 625 mmHg 44%

    28 Oktober, Montag

    Zeit Temperatur Niederschläge Wind Luftdruck Luftfeuchtigkeit
    00:00 +6°C° 0 mm 0 m/S 625 mmHg 45%
    01:00 +5°C° 0 mm 0 m/S 625 mmHg 46%
    02:00 +5°C° 0 mm 0 m/S 624 mmHg 46%
    03:00 +5°C° 0 mm 0 m/S 624 mmHg 47%
    04:00 +4°C° 0 mm 0 m/S 624 mmHg 48%
    05:00 +5°C° 0 mm 0 m/S 624 mmHg 47%
    06:00 +5°C° 0 mm 0 m/S 624 mmHg 46%
    07:00 +6°C° 0 mm 0 m/S 624 mmHg 45%
    08:00 +8°C° 0 mm 0 m/S 625 mmHg 39%
    09:00 +12°C° 0 mm 1 m/S 626 mmHg 34%
    10:00 +14°C° 0 mm 1 m/S 627 mmHg 28%
    11:00 +15°C° 0 mm 1 m/S 626 mmHg 26%
    12:00 +16°C° 0 mm 1 m/S 626 mmHg 25%
    13:00 +18°C° 0 mm 1 m/S 626 mmHg 23%
    14:00 +15°C° 0 mm 1 m/S 625 mmHg 27%
    15:00 +14°C° 0 mm 1 m/S 624 mmHg 30%
    16:00 +12°C° 0 mm 1 m/S 624 mmHg 34%
    17:00 +11°C° 0 mm 1 m/S 623 mmHg 36%
    18:00 +9°C° 0 mm 1 m/S 623 mmHg 38%
    19:00 +8°C° 0 mm 1 m/S 623 mmHg 40%
    20:00 +8°C° 0 mm 1 m/S 623 mmHg 40%
    21:00 +7°C° 0 mm 1 m/S 623 mmHg 41%
    22:00 +7°C° 0 mm 1 m/S 623 mmHg 42%
    23:00 +5°C° 0 mm 0 m/S 623 mmHg 43%

    29 Oktober, Dienstag

    Zeit Temperatur Niederschläge Wind Luftdruck Luftfeuchtigkeit
    00:00 +5°C° 0 mm 0 m/S 622 mmHg 44%
    01:00 +5°C° 0 mm 0 m/S 622 mmHg 45%
    02:00 +4°C° 0 mm 0 m/S 622 mmHg 46%
    03:00 +4°C° 0 mm 0 m/S 622 mmHg 47%
    04:00 +4°C° 0 mm 0 m/S 622 mmHg 48%
    05:00 +4°C° 0 mm 0 m/S 622 mmHg 47%
    06:00 +5°C° 0 mm 0 m/S 622 mmHg 47%
    07:00 +5°C° 0 mm 0 m/S 623 mmHg 46%
    08:00 +8°C° 0 mm 0 m/S 624 mmHg 41%
    09:00 +11°C° 0 mm 1 m/S 625 mmHg 35%
    10:00 +14°C° 0 mm 1 m/S 626 mmHg 30%
    11:00 +14°C° 0 mm 1 m/S 626 mmHg 28%
    12:00 +15°C° 0 mm 1 m/S 626 mmHg 26%
    13:00 +16°C° 0 mm 2 m/S 626 mmHg 24%
    14:00 +14°C° 0 mm 1 m/S 625 mmHg 28%
    15:00 +13°C° 0 mm 1 m/S 624 mmHg 32%
    16:00 +12°C° 0 mm 1 m/S 623 mmHg 35%
    17:00 +10°C° 0 mm 1 m/S 623 mmHg 37%
    18:00 +9°C° 0 mm 1 m/S 623 mmHg 39%
    19:00 +7°C° 0 mm 1 m/S 623 mmHg 41%
    20:00 +7°C° 0 mm 1 m/S 623 mmHg 42%
    21:00 +7°C° 0 mm 1 m/S 623 mmHg 43%
    22:00 +6°C° 0 mm 1 m/S 623 mmHg 43%
    23:00 +6°C° 0 mm 1 m/S 623 mmHg 44%
    Mehr zeigen